Change the Weather History Date:

Thursday, April 4, 2013

  Actual Average Record
Temperature  
Mean Temperature 56 °F -  
Max Temperature 61 °F 71 °F 86 °F (1997)
Min Temperature 50 °F 51 °F 41 °F (2014)
Degree Days  
Heating Degree Days 10    
Growing Degree Days 6 (Base 50)    
Moisture  
Dew Point 51 °F    
Average Humidity 86    
Maximum Humidity 94    
Minimum Humidity 72    
Precipitation  
Precipitation 0.20 in - - ()
Sea Level Pressure  
Sea Level Pressure 29.75 in    
Wind  
Wind Speed 13 mph ()    
Max Wind Speed 23 mph    
Max Gust Speed 33 mph    
Visibility 6.1 miles    
Events Rain    
Averages and records for this station are not official NWS values.
T = Trace of Precipitation, MM = Missing Value Source: Averaged Metar Reports

Daily Weather History Graph

Daily Weather History Graph

Search for Another Location

Airport or City:

Trip Planner

Search our weather history database for the weather conditions in past years. The results will help you decide how hot, cold, wet, or windy it might be!

Date:

Astronomy

Apr. 04, 2013 Rise Set
Actual Time 6:14 AM WET 6:53 PM WET
Civil Twilight 5:49 AM WET 7:18 PM WET
Nautical Twilight 5:19 AM WET 7:47 PM WET
Astronomical Twilight 4:49 AM WET 8:17 PM WET
Moon 2:13 AM WET (4/4) 1:12 PM WET (4/4)
Length of Visible Light 13h 29m
Length of Day
12h 38m
Waning Crescent, 35% of the Moon is Illuminated
Apr 4
Waning Crescent
Apr 10
New
Apr 18
First Quarter
Apr 25
Full
May 2
Last Quarter

Hourly Weather History & Observations

Time (WET) Temp. Dew Point Humidity Pressure Visibility Wind Dir Wind Speed Gust Speed Precip Events Conditions
12:00 AM 52 °F 49 °F 85% 29.77 in 6 mi SSW 9.2 mph - -   Mostly Cloudy
12:00 AM 51.8 °F 48.2 °F 88% 29.74 in 6.2 mi SSW 9.2 mph - N/A   Mostly Cloudy
12:30 AM 51.8 °F 48.2 °F 88% 29.74 in 6.2 mi South 6.9 mph - N/A   Mostly Cloudy
1:00 AM 51.8 °F 48.2 °F 88% 29.74 in 6.2 mi SSW 9.2 mph - N/A   Mostly Cloudy
1:30 AM 51.8 °F 48.2 °F 88% 29.74 in 6.2 mi SW 10.4 mph - N/A   Mostly Cloudy
2:00 AM 50.0 °F 48.2 °F 94% 29.74 in 6.2 mi SSW 10.4 mph - N/A   Mostly Cloudy
2:30 AM 50.0 °F 48.2 °F 94% 29.74 in 6.2 mi SSW 11.5 mph - N/A Rain Rain
3:00 AM 51 °F 48 °F 84% 29.73 in 6 mi South 11.5 mph - -   Clear
3:00 AM 50.0 °F 48.2 °F 94% 29.71 in 6.2 mi South 11.5 mph - N/A   Mostly Cloudy
3:30 AM 50.0 °F 48.2 °F 94% 29.71 in 6.2 mi South 12.7 mph - N/A   Mostly Cloudy
4:00 AM 51.8 °F 48.2 °F 88% 29.71 in 5.6 mi SSW 11.5 mph - N/A Rain Rain
4:30 AM 51.8 °F 50.0 °F 94% 29.71 in 6.2 mi SSW 12.7 mph - N/A Rain Rain
5:00 AM 51.8 °F 48.2 °F 88% 29.71 in 6.2 mi SSW 11.5 mph - N/A   Mostly Cloudy
5:30 AM 51.8 °F 48.2 °F 88% 29.71 in 6.2 mi South 10.4 mph - N/A   Mostly Cloudy
6:00 AM 51 °F 48 °F 87% 29.73 in 6 mi South 13.8 mph - -   Clear
6:00 AM 50.0 °F 48.2 °F 94% 29.71 in 6.2 mi South 13.8 mph - N/A   Mostly Cloudy
6:30 AM 50.0 °F 48.2 °F 94% 29.71 in 6.2 mi South 13.8 mph - N/A   Mostly Cloudy
7:00 AM 51.8 °F 48.2 °F 88% 29.71 in 6.2 mi South 15.0 mph - N/A   Mostly Cloudy
7:30 AM 51.8 °F 48.2 °F 88% 29.74 in 6.2 mi SSW 16.1 mph - N/A   Mostly Cloudy
8:00 AM 51.8 °F 50.0 °F 94% 29.74 in 6.2 mi SSW 16.1 mph - N/A   Mostly Cloudy
8:30 AM 53.6 °F 50.0 °F 88% 29.74 in 6.2 mi SSW 16.1 mph - N/A   Mostly Cloudy
9:00 AM 56 °F 52 °F 83% 29.77 in 6 mi SSW 20.7 mph - -   Clear
9:00 AM 57.2 °F 51.8 °F 82% 29.77 in 6.2 mi SSW 20.7 mph - N/A   Scattered Clouds
9:30 AM 59.0 °F 51.8 °F 77% 29.77 in 5.6 mi SW 19.6 mph - N/A   Scattered Clouds
10:00 AM 57.2 °F 51.8 °F 82% 29.77 in 5.6 mi SW 19.6 mph - N/A   Mostly Cloudy
10:30 AM 60.8 °F 51.8 °F 72% 29.77 in 6.2 mi SW 23.0 mph - N/A   Mostly Cloudy
11:00 AM 57.2 °F 51.8 °F 82% 29.80 in 6.2 mi SW 12.7 mph - N/A   Mostly Cloudy
11:30 AM 59.0 °F 53.6 °F 82% 29.77 in 6.2 mi SW 11.5 mph 27.6 mph N/A   Mostly Cloudy
12:00 PM 57 °F 50 °F 72% 29.78 in 6 mi SW 21.9 mph - - Rain Rain
12:00 PM 57.2 °F 50.0 °F 77% 29.77 in 6.2 mi SW 21.9 mph 33.4 mph N/A Rain Rain
12:30 PM 55.4 °F 50.0 °F 82% 29.80 in 5.6 mi WSW 15.0 mph 26.5 mph N/A   Mostly Cloudy
1:00 PM 60.8 °F 53.6 °F 77% 29.77 in 6.2 mi SW 23.0 mph - N/A   Mostly Cloudy
1:30 PM 59.0 °F 53.6 °F 82% 29.77 in 6.2 mi SSW 21.9 mph - N/A   Mostly Cloudy
2:00 PM 57.2 °F 51.8 °F 82% 29.74 in 6.2 mi SW 12.7 mph 27.6 mph N/A   Mostly Cloudy
2:30 PM 59.0 °F 53.6 °F 82% 29.77 in 6.2 mi West 9.2 mph - N/A   Mostly Cloudy
3:00 PM 57 °F 53 °F 83% 29.78 in 6 mi WSW 18.4 mph - -   Clear
3:00 PM 57.2 °F 53.6 °F 88% 29.77 in 6.2 mi WSW 18.4 mph - N/A   Mostly Cloudy
3:30 PM 55.4 °F 51.8 °F 88% 29.77 in 6.2 mi SW 17.3 mph - N/A   Mostly Cloudy
4:00 PM 57.2 °F 53.6 °F 88% 29.74 in 6.2 mi SSW 15.0 mph - N/A   Mostly Cloudy
4:30 PM 57.2 °F 51.8 °F 82% 29.74 in 6.2 mi SW 16.1 mph - N/A   Mostly Cloudy
5:00 PM 59.0 °F 51.8 °F 77% 29.74 in 6.2 mi SW 18.4 mph - N/A   Mostly Cloudy
5:30 PM 57.2 °F 51.8 °F 82% 29.74 in 6.2 mi SSW 10.4 mph - N/A   Mostly Cloudy
6:00 PM 56 °F 52 °F 82% 29.75 in 4 mi WSW 11.5 mph - -   Clear
6:00 PM 57.2 °F 51.8 °F 82% 29.74 in 6.2 mi WSW 11.5 mph - N/A   Mostly Cloudy
6:30 PM 55.4 °F 51.8 °F 88% 29.74 in 6.2 mi SW 13.8 mph - N/A Rain Rain
7:00 PM 55.4 °F 51.8 °F 88% 29.74 in 6.2 mi SW 17.3 mph - N/A   Mostly Cloudy
7:30 PM 55.4 °F 51.8 °F 88% 29.74 in 6.2 mi SSW 16.1 mph - N/A   Mostly Cloudy
8:00 PM 55.4 °F 51.8 °F 88% 29.74 in 6.2 mi SSW 16.1 mph - N/A   Mostly Cloudy
8:30 PM 55.4 °F 51.8 °F 88% 29.74 in 6.2 mi SSW 16.1 mph - N/A   Mostly Cloudy
9:00 PM 56 °F 52 °F 83% 29.77 in 6 mi SSW 19.6 mph - -   Clear
9:00 PM 55.4 °F 51.8 °F 88% 29.77 in 6.2 mi SSW 19.6 mph - N/A   Mostly Cloudy
9:30 PM 55.4 °F 51.8 °F 88% 29.77 in 6.2 mi SSW 19.6 mph - N/A   Mostly Cloudy
10:00 PM 55.4 °F 51.8 °F 88% 29.77 in 6.2 mi SSW 18.4 mph - N/A   Mostly Cloudy
10:30 PM 55.4 °F 51.8 °F 88% 29.74 in 6.2 mi SSW 17.3 mph - N/A   Mostly Cloudy
11:00 PM 55.4 °F 50.0 °F 82% 29.74 in 6.2 mi SSW 17.3 mph - N/A   Mostly Cloudy
11:30 PM 55.4 °F 50.0 °F 82% 29.74 in 6.2 mi SSW 20.7 mph - N/A Rain Rain